[[{"header":{"parameterUnit":"m.s-1","parameterCategory":1,"la1":30.2991,"la2":30.254,"lo1":-89.0895,"lo2":-89.0444,"dy":0.0017,"dx":0.0017,"nx":28,"ny":28,"refTime":"2024-06-24T03:00:00:Z","depth":0,"parameterNumber":2,"parameterNumberName":"U-component_of_WINDS"},"data":[0,0,0,0,0,0,0,0,0,0,0,0,0,0,0,0,0,0,0,0,0,0,0,0,0,0,0,0,0,0,0,0,0,0,0,0,0,0,0,0,0,0,0,0,0,0,0,0,0,0,0,0,0,0,0,0,0,0,4.3757,4.3758,0,4.386,4.3861,4.3862,4.3772,4.3768,4.3764,4.3761,4.387,4.3876,4.3882,0,0,0,0,0,0,0,0,0,0,0,0,0,4.3482,4.3488,4.3756,4.3758,4.3759,4.386,4.3861,4.3863,4.3772,4.3768,4.3763,4.3759,4.3868,4.3875,4.3883,0,0,0,0,0,0,0,0,0,0,0,0,0,4.3595,4.3489,4.3756,4.3726,4.3724,4.386,4.3861,4.3863,4.3773,4.3768,4.3762,4.3757,4.3865,4.3874,4.3884,4.4055,0,0,4.3913,4.3917,0,0,0,0,0,0,0,0,4.3589,4.3605,4.3729,4.3728,4.3727,4.3797,4.3804,4.3928,4.3775,4.3755,4.3761,4.3754,4.385,4.3861,4.3893,4.406,4.4065,4.3914,4.392,4.3924,4.3927,0,0,0,0,0,0,0,4.3581,4.36,4.3797,4.3731,4.373,4.3708,4.3718,4.3827,4.3833,4.3756,4.375,4.3763,4.3849,4.3884,4.3894,4.4066,4.3914,4.3922,4.3928,4.3932,4.4378,4.4384,0,0,0,0,0,0,4.3576,4.3594,4.3794,4.3801,4.3642,4.3717,4.3728,4.378,4.3831,4.3834,4.3768,4.3759,4.387,4.3883,4.3898,4.4101,4.3924,4.3933,4.3938,4.4372,4.438,4.4386,0,0,0,0,0,0,4.3571,4.3595,4.379,4.3696,4.3719,4.3728,4.3787,4.3785,4.382,4.384,4.3841,4.3802,4.3866,4.3884,4.4016,4.4103,4.3937,4.3946,4.4365,4.4375,4.4383,4.4508,0,0,0,0,0,0,4.3563,4.3593,4.3658,4.3698,4.3724,4.3907,4.3792,4.3791,4.3837,4.3825,4.3873,4.3875,4.3863,4.4002,4.4026,4.4113,4.3953,4.4357,4.4369,4.438,4.4497,4.4521,4.4542,0,0,0,0,0,4.3554,4.369,4.3662,4.3687,4.3806,4.3912,4.3927,4.3909,4.3844,4.3909,4.3922,4.3874,4.409,4.4017,4.4042,4.4134,4.4352,4.4366,4.4379,4.4487,4.4516,4.4541,0,0,0,0,0,0,4.3662,4.3695,4.3664,4.3818,4.3862,4.3896,4.3978,4.3941,4.4006,4.3993,4.3969,4.3981,4.4119,4.414,4.4057,4.4302,4.421,4.423,4.4283,4.4311,4.4334,4.4325,4.3961,0,0,0,0,0,4.3703,4.3786,4.3811,4.3944,4.3968,4.397,4.4015,4.3997,4.4043,4.4062,4.4084,4.4131,4.4209,4.4262,4.4335,4.4499,4.4508,4.4575,4.4597,4.4616,4.4633,4.472,4.475,4.4432,4.4432,4.4431,0,0,4.3791,4.3819,4.3873,4.3966,4.3999,4.4085,4.3986,4.4082,4.4146,4.4077,4.4202,4.422,4.4271,4.4419,4.4486,4.4441,4.4723,4.4633,4.4648,4.4655,4.4737,4.4767,4.4794,4.4441,4.4439,4.4438,0,0,4.3993,4.4023,4.4137,4.4171,4.4221,4.4221,4.4248,4.4288,4.4297,4.4422,4.4371,4.4447,4.4583,4.4621,4.4658,4.4874,4.4832,4.4898,4.5016,4.5101,4.5126,4.5148,4.5224,4.5252,4.4915,4.4916,4.4916,0,4.4095,4.4223,4.42,4.4299,4.4342,4.4282,4.4396,4.4431,4.4504,4.4534,4.4482,4.465,4.4681,4.4836,4.4889,4.4921,4.4952,4.4893,4.5124,4.5146,4.5166,4.5239,4.5268,4.4923,4.4923,4.4922,4.4921,0,4.4345,4.4435,4.452,4.459,4.4642,4.4749,4.4742,4.4798,4.4776,4.4781,4.4909,4.4943,4.5021,4.5057,4.5037,4.521,4.5181,4.5127,4.5035,4.5205,4.5272,4.53,4.4935,4.4932,4.4929,4.4928,0,0,4.462,4.4674,4.4706,4.4736,4.4787,4.4855,4.4959,4.5035,4.5083,4.5134,4.5221,4.5336,4.5287,4.5329,4.5312,4.5388,4.5555,4.5325,4.5325,4.5365,4.5747,4.5786,4.5819,4.5528,4.5533,4.5537,4.5742,0,4.4823,4.5002,4.4985,4.5155,4.5237,4.5181,4.5271,4.5312,4.532,4.5391,4.54,4.5481,4.541,4.5435,4.5507,4.552,4.5631,4.5505,4.5608,4.5612,4.5596,4.5854,4.5896,4.6089,4.5769,4.5773,4.5776,0,4.5085,4.5144,4.5323,4.5359,4.5393,4.5475,4.5541,4.561,4.5655,4.5656,4.5702,4.5672,4.5777,4.5683,4.5826,4.574,4.5782,4.5794,4.5801,4.581,4.5704,4.5869,4.615,4.6178,4.5818,4.5815,4.5812,0,4.5266,4.5391,4.5513,4.5541,4.5587,4.5645,4.5667,4.5707,4.5753,4.5812,4.5842,4.5913,4.5952,4.6008,4.5998,4.593,4.6144,4.6049,4.6147,4.6148,4.6195,4.6192,4.6485,4.6223,4.6222,4.6222,4.6221,0,4.5495,4.5606,4.5594,4.567,4.5793,4.5771,4.5893,4.5908,4.5944,4.6021,4.5978,4.6052,4.6034,4.6108,4.6101,4.6221,4.6239,4.6242,4.6239,4.6246,4.6245,4.6272,4.6258,4.6229,4.6228,4.6226,4.6225,0,4.5718,4.5714,4.5844,4.5876,4.5887,4.5976,4.6004,4.6075,4.6079,4.6178,4.6199,4.6206,4.629,4.6286,4.6381,4.6377,4.6523,4.6505,4.6508,4.6504,4.6602,4.6592,4.6922,4.6964,4.6675,4.6678,4.668,0,4.5864,4.5948,4.5989,4.6037,4.6062,4.6141,4.6187,4.6169,4.6219,4.6276,4.6341,4.642,4.6483,4.662,4.6633,4.6706,4.6689,4.6799,4.6699,4.6703,4.6689,4.6684,4.6692,4.6819,4.6822,4.6825,4.6827,0,4.6123,4.6117,4.6184,4.6252,4.6308,4.6361,4.6409,4.6451,4.6438,4.6497,4.6581,4.663,4.6726,4.6806,4.6875,4.6898,4.6861,4.6858,4.6884,4.6892,4.6889,4.6891,4.656,4.685,4.6848,4.6846,4.6845,4.6844,4.6311,4.6382,4.6422,4.6499,4.6533,4.6578,4.6646,4.6658,4.6728,4.6804,4.6789,4.6884,4.6926,4.7015,4.7045,4.7119,4.708,4.7118,4.7128,4.7137,4.7148,4.6878,4.7132,4.7131,4.713,4.713,4.7129,0,4.6567,4.6589,4.666,4.6728,4.6788,4.6746,4.6797,4.685,4.6934,4.6976,4.7038,4.7135,4.7212,4.7231,4.7305,4.736,4.7345,4.738,4.7376,4.7381,4.7179,4.7149,4.7391,4.7391,4.7391,4.7391,4.7391,4.7391,4.6707,4.6825,4.6824,4.6958,4.698,4.7071,4.7104,4.7145,4.7178,4.7288,4.7351,4.7362,4.7395,4.7471,4.7539,4.7543,4.7572,4.7614,4.7611,4.7422,4.7396,4.7371,4.7342,4.7621,4.7621,4.7806,4.7808,4.781]},{"header":{"parameterUnit":"m.s-1","parameterCategory":1,"la1":30.2991,"la2":30.254,"lo1":-89.0895,"lo2":-89.0444,"dy":0.0017,"dx":0.0017,"nx":28,"ny":28,"refTime":"2024-06-24T03:00:00:Z","depth":0,"parameterNumber":3,"parameterNumberName":"V-component_of_WINDS"},"data":[0,0,0,0,0,0,0,0,0,0,0,0,0,0,0,0,0,0,0,0,0,0,0,0,0,0,0,0,0,0,0,0,0,0,0,0,0,0,0,0,0,0,0,0,0,0,0,0,0,0,0,0,0,0,0,0,0,0,0.2854,0.2854,0,0.2818,0.2818,0.2818,0.2782,0.2782,0.2781,0.2781,0.2744,0.2744,0.2743,0,0,0,0,0,0,0,0,0,0,0,0,0,0.2891,0.289,0.2854,0.2854,0.2853,0.2818,0.2818,0.2817,0.2782,0.2781,0.2781,0.278,0.2744,0.2744,0.2743,0,0,0,0,0,0,0,0,0,0,0,0,0,0.2867,0.289,0.2854,0.2831,0.2829,0.2818,0.2818,0.2817,0.2782,0.2781,0.2781,0.278,0.2744,0.2744,0.2743,0.2752,0,0,0.274,0.274,0,0,0,0,0,0,0,0,0.2868,0.2866,0.2835,0.2833,0.283,0.2804,0.2817,0.2795,0.2782,0.28,0.2781,0.278,0.2765,0.2762,0.2757,0.275,0.2749,0.274,0.274,0.274,0.2739,0,0,0,0,0,0,0,0.287,0.2867,0.284,0.2835,0.2832,0.2823,0.2818,0.2813,0.2787,0.2798,0.2796,0.2792,0.2763,0.2758,0.2756,0.2748,0.274,0.274,0.2739,0.2739,0.2746,0.2747,0,0,0,0,0,0,0.2875,0.2868,0.2841,0.2839,0.2848,0.2822,0.2818,0.2813,0.2787,0.2782,0.2793,0.279,0.2759,0.2757,0.2754,0.2763,0.274,0.2739,0.2738,0.2745,0.2746,0.2747,0,0,0,0,0,0,0.2876,0.2873,0.2842,0.2853,0.2848,0.2823,0.2818,0.2813,0.2807,0.2782,0.2777,0.2792,0.2759,0.2755,0.2753,0.2761,0.2738,0.2738,0.2745,0.2746,0.2747,0.278,0,0,0,0,0,0,0.2877,0.2874,0.2877,0.2853,0.2848,0.2842,0.2818,0.2813,0.2806,0.2803,0.278,0.2776,0.2758,0.2754,0.2752,0.2759,0.2737,0.2744,0.2745,0.2746,0.2778,0.2782,0.2786,0,0,0,0,0,0.2879,0.2888,0.2878,0.2874,0.2852,0.2842,0.2839,0.2818,0.2807,0.281,0.2794,0.2777,0.276,0.2754,0.2751,0.2759,0.2743,0.2745,0.2746,0.2777,0.2781,0.2785,0,0,0,0,0,0,0.2914,0.2885,0.2873,0.2875,0.2861,0.2836,0.284,0.2824,0.2814,0.2811,0.2786,0.2781,0.2781,0.2769,0.2763,0.2766,0.2749,0.275,0.2773,0.2778,0.2781,0.2784,0.2736,0,0,0,0,0,0.2922,0.2917,0.2892,0.2896,0.289,0.2866,0.2861,0.2846,0.2831,0.2825,0.2809,0.2795,0.2786,0.2781,0.2772,0.2776,0.277,0.278,0.2783,0.2787,0.2788,0.2788,0.2792,0.2752,0.2752,0.2752,0,0,0.2939,0.2922,0.2921,0.2903,0.289,0.2885,0.2862,0.2857,0.2853,0.2825,0.2821,0.2808,0.2791,0.2791,0.279,0.2782,0.2798,0.2789,0.2791,0.2791,0.279,0.2794,0.2797,0.2753,0.2753,0.2753,0,0,0.2967,0.2954,0.2955,0.2943,0.2925,0.2909,0.2909,0.2887,0.2877,0.2873,0.2851,0.2845,0.2831,0.2819,0.2812,0.2834,0.2817,0.2831,0.2851,0.2851,0.2855,0.2857,0.2865,0.2867,0.2833,0.2833,0.2833,0,0.299,0.2981,0.2958,0.2955,0.2948,0.2921,0.2922,0.2912,0.2891,0.2887,0.2877,0.2858,0.2845,0.2841,0.2847,0.2841,0.2841,0.2834,0.2856,0.2858,0.286,0.2867,0.287,0.2834,0.2834,0.2834,0.2834,0,0.301,0.3005,0.3008,0.2989,0.2982,0.2981,0.2957,0.2953,0.2938,0.2923,0.2918,0.2901,0.2887,0.2885,0.2871,0.288,0.2874,0.2861,0.2844,0.2867,0.2872,0.2875,0.2837,0.2836,0.2836,0.2835,0,0,0.306,0.3027,0.3029,0.302,0.2997,0.2992,0.2989,0.2976,0.2972,0.2959,0.2956,0.2944,0.2931,0.2922,0.2906,0.2906,0.2924,0.2892,0.2891,0.2898,0.2932,0.2942,0.2946,0.2913,0.2913,0.2913,0.2933,0,0.3084,0.3078,0.3057,0.3057,0.3051,0.3025,0.3023,0.3008,0.2994,0.2986,0.297,0.2962,0.2945,0.294,0.2939,0.2922,0.293,0.292,0.2909,0.2909,0.2915,0.2949,0.296,0.298,0.2935,0.2936,0.2936,0,0.3111,0.3099,0.3099,0.3075,0.3072,0.3071,0.3056,0.3049,0.3032,0.3021,0.3011,0.2992,0.2988,0.2972,0.2964,0.2958,0.2952,0.2943,0.2943,0.2941,0.2924,0.2948,0.2985,0.2988,0.2939,0.2939,0.2939,0,0.3147,0.3131,0.3128,0.3121,0.3094,0.3093,0.3082,0.3063,0.3056,0.3043,0.3038,0.3025,0.3018,0.3008,0.2986,0.2976,0.2981,0.2963,0.2971,0.2972,0.2974,0.2974,0.3011,0.297,0.297,0.297,0.297,0,0.3176,0.3177,0.3144,0.3143,0.3143,0.3117,0.3118,0.3104,0.3088,0.3083,0.3059,0.3055,0.3026,0.3018,0.3001,0.2998,0.2995,0.2985,0.2981,0.2987,0.2989,0.2983,0.2982,0.2971,0.2971,0.2971,0.297,0,0.3217,0.3195,0.319,0.3164,0.3158,0.3159,0.3136,0.3133,0.3117,0.3111,0.3108,0.3082,0.3071,0.3049,0.3032,0.302,0.3021,0.3013,0.3027,0.3024,0.3033,0.3033,0.3068,0.3071,0.3029,0.3029,0.303,0,0.3237,0.3237,0.321,0.3205,0.3195,0.3187,0.3179,0.3154,0.3147,0.3126,0.3126,0.3114,0.3102,0.3087,0.3066,0.3053,0.3044,0.3057,0.3042,0.3048,0.3044,0.3044,0.3044,0.3061,0.3062,0.3062,0.3062,0,0.3274,0.3263,0.3253,0.3239,0.3231,0.3219,0.3205,0.3202,0.3174,0.3167,0.3156,0.3147,0.3129,0.3117,0.3101,0.3088,0.307,0.3067,0.3068,0.3075,0.3083,0.3079,0.3036,0.3067,0.3066,0.3066,0.3066,0.3066,0.3305,0.3303,0.3284,0.3274,0.3261,0.3248,0.3244,0.3227,0.3217,0.3201,0.3187,0.3177,0.3158,0.3134,0.3123,0.3114,0.3105,0.3107,0.3107,0.3108,0.3111,0.3085,0.3111,0.3111,0.3111,0.311,0.311,0,0.3341,0.3327,0.3317,0.3299,0.3291,0.3274,0.3258,0.3252,0.3244,0.3228,0.3217,0.3203,0.3191,0.3169,0.3155,0.3152,0.3143,0.3149,0.3149,0.3146,0.312,0.312,0.3156,0.3156,0.3156,0.3156,0.3156,0.3156,0.3358,0.3355,0.3341,0.333,0.3316,0.3306,0.3298,0.3287,0.3274,0.326,0.3249,0.3235,0.3217,0.32,0.3188,0.3182,0.3177,0.3186,0.3177,0.3153,0.3148,0.3144,0.3144,0.3185,0.3185,0.3204,0.3204,0.3204]}]]